User: anonymous   Login
Location: Deer Lake
(49.1830°N, 57.4330°W)
Time: 21:03:42
(UTC-03:-30)
Language:

NOSS 3-1 (C) - Orbit

View from above orbital plane
View from above orbital plane
View from above satellite
View from above satellite

Ground track
Ground track

The orbit data is extracted from the following two-line orbital elements,

1 26907U 01040C   15058.79652101 0.00000070  00000-0  97147-4 0    01
2 26907  63.4213  15.0110 0297000 358.2228   1.7772 13.41225316    03
Epoch (UTC): 27 February 2015 19:06:59
Eccentricity: 0.0297000
inclination: 63.4213°
perigee height: 882 km
apogee height: 1327 km
right ascension of ascending node: 15.0110°
argument of perigee: 358.2228°
revolutions per day: 13.41225316
mean anomaly at epoch: 1.7772°
orbit number at epoch: 0

The dashed part of the orbit path shows where the satellite is in the earth's shadow,  

DLR